This is the latest recevied weather packets stored in our database for station/object HB9GPU-10. If no packets are shown the sender has not sent any weather packets the latest 10 day(s).
| Time | Temp. | Humidity | Pressure | Rain* | Wind** | Luminosity | Snow |
|---|---|---|---|---|---|---|---|
| 1777534723 | 26.11° C | 19% | 1026.4 hPa | - | - | - | - |
| 1777533827 | 27.22° C | 18% | 1026.4 hPa | - | - | - | - |
| 1777533823 | 27.22° C | 18% | 1026.4 hPa | - | - | - | - |
| 1777532927 | 26.11° C | 19% | 1026.7 hPa | - | - | - | - |
| 1777532923 | 26.11° C | 19% | 1026.7 hPa | - | - | - | - |
| 1777532026 | 26.11° C | 19% | 1026.7 hPa | - | - | - | - |
| 1777532022 | 26.11° C | 19% | 1026.7 hPa | - | - | - | - |
| 1777531126 | 26.11° C | 20% | 1026.6 hPa | - | - | - | - |
| 1777531122 | 26.11° C | 20% | 1026.6 hPa | - | - | - | - |
| 1777530226 | 26.11° C | 19% | 1026.6 hPa | - | - | - | - |
| 1777530222 | 26.11° C | 19% | 1026.6 hPa | - | - | - | - |
| 1777529326 | 26.11° C | 19% | 1026.5 hPa | - | - | - | - |
| 1777529322 | 26.11° C | 19% | 1026.5 hPa | - | - | - | - |
| 1777528426 | 26.11° C | 19% | 1026.6 hPa | - | - | - | - |
| 1777528422 | 26.11° C | 19% | 1026.6 hPa | - | - | - | - |
| 1777527526 | 25.56° C | 20% | 1026.5 hPa | - | - | - | - |
| 1777527522 | 25.56° C | 20% | 1026.5 hPa | - | - | - | - |
| 1777526625 | 26.67° C | 19% | 1026.3 hPa | - | - | - | - |
| 1777526621 | 26.67° C | 19% | 1026.3 hPa | - | - | - | - |
| 1777525725 | 25.56° C | 20% | 1026.2 hPa | - | - | - | - |
| 1777525721 | 25.56° C | 20% | 1026.2 hPa | - | - | - | - |
| 1777524825 | 25.56° C | 20% | 1026.2 hPa | - | - | - | - |
| 1777524821 | 25.56° C | 20% | 1026.2 hPa | - | - | - | - |
| 1777523925 | 25° C | 20% | 1026.2 hPa | - | - | - | - |
| 1777523921 | 25° C | 20% | 1026.2 hPa | - | - | - | - |
* Rain since midnight (hover to see other rain measurements)
** Current wind speed in m/s (hover to see current wind gust speed)